Вернуться в каталог

STARLINK-32046

АктивенСвязьVLEO
NORAD 60198·PAYLOAD·🇺🇸 United States

Запущен Jul 3, 2024 с Cape Canaveral Space Force Station

Loading…

Ближайшие Пролёты (ближайшие 24 часа)

TLE

СвежийSource: CelesTrak SupGP

Эпоха: Sep 15, 2026, 03:19 UTC

1 60198C 24124R   26258.13868056  .00030939  00000+0  99506-3 0  2580
2 60198  53.1568 161.2410 0001311  80.2335 124.4877 15.31681737    12

Отслеживайте STARLINK-32046 в реальном времени с AllMySat

Download on the App Store